Regional Weather Roundup
Issued by NWS

Home | Current Version | Previous Version | Graphics & Text | Print | Product List | Glossary On
Versions: 1 2 3 4 5 6 7 8 9 10 11 12 13 14 15 16 17 18 19 20 21 22 23 24 25 26 27 28 29 30 31 32 33 34 35 36 37 38 39 40 41 42 43 44 45 46 47 48 49 50
000
ASUS45 KBOU 230607
RWRCO

WEATHER ROUNDUP FOR COLORADO
NATIONAL WEATHER SERVICE DENVER/BOULDER CO
1200 AM MDT WED JUL 23 2014

NOTE: "FAIR" INDICATES FEW OR NO CLOUDS BELOW 12000 FEET WITH NO
SIGNIFICANT WEATHER AND/OR OBSTRUCTIONS TO VISIBILITY.

COZ001>005-013-030-031-230700-
...NORTHWEST COLORADO...

CITY           SKY/WX    TMP DP  RH WIND       PRES   REMARKS
CRAIG          CLEAR     49  44  83 CALM      30.34R
HAYDEN         CLEAR     64  36  34 E15       30.37S
MEEKER         CLEAR     65  35  33 E8        30.34S
MOUNT WERNER   NOT AVBL
STEAMBOAT SPGS CLEAR     60  37  41 CALM      30.41S
WALDEN         CLEAR     55  36  47 CALM      30.53R
$$

COZ006>008-011-230700-
...WEST CENTRAL VALLEYS...

CITY           SKY/WX    TMP DP  RH WIND       PRES   REMARKS
GRAND JUNCTION CLEAR     76  25  15 SE6       30.16R
MONTROSE       PTCLDY    74  41  30 S7        30.28R
EAGLE          CLEAR     66  36  32 CALM      30.41R
RIFLE          CLEAR     68  37  32 NE3       30.27R
DELTA          PTCLDY    81  31  16 NE6       30.22R
NUCLA          PTCLDY    77  25  14 E8        30.32R
$$

COZ017>023-064>068-230700-
...SOUTHWEST COLORADO...

CITY           SKY/WX    TMP DP  RH WIND       PRES   REMARKS
DURANGO        LGT RAIN  70  51  51 S13       30.49R
CORTEZ         CLEAR     83  39  21 SE17G33   30.31R
PAGOSA SPRINGS CLOUDY    70  39  32 CALM      30.55R
TELLURIDE      MOCLDY    70  32  24 NE3       30.60R
WOLF CREEK PAS NOT AVBL
$$

COZ009-010-012-014-032>034-037-058>063-230700-
...CENTRAL COLORADO...

CITY           SKY/WX    TMP DP  RH WIND       PRES   REMARKS
ASPEN          CLEAR     72  39  30 SE13G21   30.49R
BUENA VISTA    PTCLDY    60  49  65 SW3       30.62F
COPPER MTN     CLEAR     59  32  36 S24       30.87F
BERTHOUD PASS  FAIR      50  36  57 S10G21    30.94S
COTTONWOOD PAS PTCLDY    63  36  36 CALM      30.76S
GUNNISON       PTCLDY    73  39  29 E20G26    30.52R
KREMMLING      CLEAR     64  34  32 N7        30.49S
LEADVILLE      CLEAR     55  38  52 S7        30.73S
MONARCH PASS   MOCLDY    50  37  62 E24G30    31.00
SALIDA         CLOUDY   N/A N/A N/A E7        30.68R
SUNLIGHT       CLEAR     63  28  27 E3        30.75S
WILKERSON PASS MOCLDY    54  36  50 S13G21    30.85S
$$

COZ069>075-230700-
...SAN LUIS VALLEY/SANGRE DE CRISTO MOUNTAINS...

CITY           SKY/WX    TMP DP  RH WIND       PRES   REMARKS
ALAMOSA        CLEAR     60  45  57 SE7       30.52R
LA VETA PASS   CLEAR     59  39  47 SW3       30.75S
SAGUACHE       CLOUDY    68  43  40 E6        30.57R
$$

COZ035-036-038>040-230700-
...NORTHERN COLORADO FRONT RANGE...

CITY           SKY/WX    TMP DP  RH WIND       PRES   REMARKS
DENVER INTL AP PTCLDY    69  52  54 E8        30.32S
DMNS CITY PARK   N/A     73  47  39 S3        30.32R
AURORA         PTCLDY    72  49  43 S8        30.34S
FRONT RANGE AP NOT AVBL
ERIE MUNI ARPT CLEAR     75  55  50 W3        30.29S
BOULDER MUN AP CLEAR     77  52  41 W3        30.31R
CENTENNIAL     PTCLDY    69  46  43 S5        30.36S
BROOMFIELD     CLEAR     75  52  43 CALM      30.34S
FORT COLLINS   CLEAR     73  59  60 N3        30.32R
LONGMONT       CLEAR     74  58  58 NW6       30.31R
$$

COZ041-046-047-076>085-087-088-230700-
...PIKES PEAK/PALMER DIVIDE AND SOUTHERN FOOTHILLS...

CITY           SKY/WX    TMP DP  RH WIND       PRES   REMARKS
COLO. SPRINGS  CLOUDY    75  51  43 N5        30.42S
A. F. ACADEMY  MOCLDY    69  51  52 E6        30.44S
ELLICOTT       CLOUDY    70  52  52 S8        30.40R
FALCON         CLOUDY    69  51  52 W5        30.48R
FORT CARSON    MOCLDY    76  48  37 W7        30.38S
LIMON          PTCLDY    68  56  65 E3        30.35R
MONUMENT HILL  MOCLDY    66  50  55 S7        30.46S
TRINIDAD       CLEAR     71  48  43 W8        30.37R
$$

COZ042>045-048>051-090-091-230700-
...NORTHEAST COLORADO...

CITY           SKY/WX    TMP DP  RH WIND       PRES   REMARKS
GREELEY ARPT   CLEAR     70  57  64 SE6       30.30R
AKRON          CLEAR     72  63  73 E15       30.32R
BURLINGTON     CLEAR     70  62  76 NE7       30.28R
WRAY             N/A     75  62  64 E12       30.30R
STERLING       CLEAR     77  64  65 SE18G29   30.27R
HOLYOKE        CLEAR     73  63  68 SE7       30.31R
FORT MORGAN    CLEAR     73  62  66 E13       30.31R
$$

COZ086-089-092>099-230700-
...SOUTHEAST COLORADO...

CITY           SKY/WX    TMP DP  RH WIND       PRES   REMARKS
PUEBLO         PTCLDY    73  55  53 N3        30.27R
LA JUNTA       CLEAR     80  59  48 S6        30.23R
LAMAR          CLEAR     79  62  56 S14       30.20R
SPRINGFIELD      N/A     72  62  71 S10       30.27S
$$


USA.gov is the U.S. government's official web portal to all federal, state and local government web resources and services.